This demonstration page uses our WeatherBlox Daily Observations layout. Learn more.

Left ArrowRight Arrow

39.51506, -84.39828

Hourly Observations for May 2, 2015

Temp ( °F °C ) Dew Point ( °F °C ) Humidity (%) Winds ( mph kmh ) Pressure ( in mb ) Visibility ( mi km ) Precip ( " mm )
12:15 am 00:15 Clear 49 9.6 44 6.4 81 81 Calm 30.09 1019 10 16 0.00 0.00
12:35 am 00:35 Clear 49 9.6 43 6.1 79 79 Calm 30.09 1019 10 16 0.00 0.00
12:55 am 00:55 Clear 49 9.6 43 5.9 78 78 NE 3 6 30.09 1019 10 16 0.00 0.00
1:15 am 01:15 Clear 49 9.6 45 7 84 84 N 3 6 30.09 1019 10 16 0.00 0.00
1:35 am 01:35 Clear 49 9.6 44 6.6 82 82 Calm 30.09 1019 10 16 0.00 0.00
1:55 am 01:55 Clear 49 9.6 44 6.8 83 83 Calm 30.09 1019 10 16 0.00 0.00
2:15 am 02:15 Clear 49 9.6 44 6.5 81 81 Calm 30.09 1019 10 16 0.00 0.00
2:35 am 02:35 Clear 49 9.6 45 7 84 84 Calm 30.09 1019 10 16 0.00 0.00
2:55 am 02:55 Clear 49 9.6 44 6.5 81 81 ENE 3 6 30.09 1019 10 16 0.00 0.00
3:15 am 03:15 Clear 49 9.6 45 7.2 85 85 NNE 3 6 30.09 1019 10 16 0.00 0.00
3:35 am 03:35 Clear 49 9.6 45 7.2 85 85 Calm 30.09 1019 10 16 0.00 0.00
3:55 am 03:55 Clear 49 9.6 45 7 84 84 Calm 30.09 1019 10 16 0.00 0.00
4:15 am 04:15 Clear 49 9.6 45 7 84 84 Calm 30.09 1019 10 16 0.00 0.00
4:35 am 04:35 Clear 49 9.6 45 7.1 85 85 Calm 30.09 1019 10 16 0.00 0.00
4:55 am 04:55 Clear 49 9.6 45 7.3 86 86 Calm 30.09 1019 10 16 0.00 0.00
5:15 am 05:15 Clear 49 9.6 45 7.3 86 86 Calm 30.12 1020 10 16 0.00 0.00
5:35 am 05:35 Clear 49 9.6 45 7.2 85 85 Calm 30.12 1020 10 16 0.00 0.00
5:55 am 05:55 Clear 49 9.6 45 7.3 86 86 Calm 30.12 1020 10 16 0.00 0.00
6:15 am 06:15 Clear 47 8.2 43 6 86 86 Calm 30.12 1020 10 16 0.00 0.00
6:35 am 06:35 Clear 47 8.2 43 6.1 87 87 Calm 30.12 1020 10 16 0.00 0.00
6:55 am 06:55 Sunny 47 8.2 43 6.2 87 87 Calm 30.12 1020 10 16 0.00 0.00
7:15 am 07:15 Sunny 47 8.5 43 6.3 86 86 Calm 30.12 1020 10 16 0.00 0.00
7:35 am 07:35 Sunny 49 9.6 46 7.5 87 87 Calm 30.12 1020 10 16 0.00 0.00
7:55 am 07:55 Sunny 49 9.6 46 7.5 87 87 Calm 30.15 1021 10 16 0.00 0.00
8:15 am 08:15 Sunny 49 9.6 45 7.3 86 86 Calm 30.15 1021 10 16 0.00 0.00
8:35 am 08:35 Partly Cloudy 52 11.3 47 8.2 81 81 Calm 30.15 1021 10 16 0.00 0.00
8:55 am 08:55 Partly Cloudy 55 12.5 47 8.6 77 77 Calm 30.15 1021 10 16 0.00 0.00
9:15 am 09:15 Sunny 57 13.8 46 7.7 67 67 Calm 30.15 1021 10 16 0.00 0.00
9:35 am 09:35 Sunny 60 15.3 46 7.5 60 60 Calm 30.15 1021 10 16 0.00 0.00
9:55 am 09:55 Sunny 61 16 44 6.6 54 54 Calm 30.15 1021 10 16 0.00 0.00
10:15 am 10:15 Sunny 62 16.6 44 6.7 52 52 Calm 30.12 1020 10 16 0.00 0.00
10:35 am 10:35 Sunny 64 17.9 46 7.7 51 51 Calm 30.12 1020 10 16 0.00 0.00
10:55 am 10:55 Sunny 69 20.8 49 9.6 49 49 Calm 30.12 1020 10 16 0.00 0.00
11:15 am 11:15 Sunny 69 20.8 46 7.6 43 43 ESE 3 6 30.12 1020 10 16 0.00 0.00
11:35 am 11:35 Sunny 70 21.3 44 6.6 39 39 ESE 3 6 30.12 1020 10 16 0.00 0.00
11:55 am 11:55 Sunny 73 22.6 42 5.5 33 33 Calm 30.12 1020 10 16 0.00 0.00
12:15 pm 12:15 Partly Cloudy 73 23 42 5.6 32 32 Calm 30.12 1020 10 16 0.00 0.00
12:35 pm 12:35 Mostly Cloudy 72 22.3 40 4.6 32 32 Calm 30.09 1019 10 16 0.00 0.00
12:55 pm 12:55 Partly Cloudy 74 23.6 37 3 26 26 SW 5 7 30.09 1019 10 16 0.00 0.00
1:15 pm 13:15 Partly Cloudy 74 23.6 39 4 28 28 W 6 9 30.09 1019 10 16 0.00 0.00
1:35 pm 13:35 Partly Cloudy 74 23.6 39 4 28 28 WSW 8 13 30.09 1019 10 16 0.00 0.00
1:55 pm 13:55 Mostly Cloudy 74 23.6 41 4.9 30 30 W 7 11 30.09 1019 10 16 0.00 0.00
2:15 pm 14:15 Partly Cloudy 74 23.6 38 3.5 27 27 W 12 19 30.06 1018 10 16 0.00 0.00
2:35 pm 14:35 Partly Cloudy 75 23.7 41 5 30 30 SW 10 17 30.06 1018 10 16 0.00 0.00
2:55 pm 14:55 Partly Cloudy 74 23.6 38 3.2 26 26 WSW 6 9 30.06 1018 10 16 0.00 0.00
3:15 pm 15:15 Sunny 74 23.6 38 3.4 27 27 SW 7 11 30.06 1018 10 16 0.00 0.00
3:35 pm 15:35 Mostly Cloudy 74 23.6 38 3.2 26 26 SW 8 13 30.03 1017 10 16 0.00 0.00
3:55 pm 15:55 Partly Cloudy 74 23.6 35 1.8 24 24 WSW 8 13 30.03 1017 10 16 0.00 0.00
4:15 pm 16:15 Partly Cloudy 74 23.6 37 3 26 26 SSW 5 7 30.03 1017 10 16 0.00 0.00
4:35 pm 16:35 Mostly Cloudy 74 23.6 33 0.8 22 22 SSE 3 6 30.03 1017 10 16 0.00 0.00
4:55 pm 16:55 Mostly Cloudy 76 24.2 38 3.1 25 25 WSW 8 13 30.03 1017 10 16 0.00 0.00
5:15 pm 17:15 Mostly Cloudy 75 24.1 37 2.9 25 25 SW 7 11 30.00 1016 10 16 0.00 0.00
5:35 pm 17:35 Partly Cloudy 76 24.5 40 4.2 27 27 WNW 7 11 30.00 1016 10 16 0.00 0.00
5:55 pm 17:55 Partly Cloudy 74 23.6 38 3.3 27 27 WSW 7 11 30.00 1016 10 16 0.00 0.00
6:15 pm 18:15 Sunny 74 23.6 38 3.1 26 26 Calm 30.00 1016 10 16 0.00 0.00
6:35 pm 18:35 Sunny 74 23.6 36 2 24 24 SW 9 15 30.00 1016 10 16 0.00 0.00
6:55 pm 18:55 Sunny 74 23.6 35 1.9 24 24 W 8 13 30.00 1016 10 16 0.00 0.00
7:15 pm 19:15 Sunny 74 23.6 41 4.9 30 30 SW 7 11 30.00 1016 10 16 0.00 0.00
7:35 pm 19:35 Sunny 74 23.6 45 7 34 34 W 5 7 30.03 1017 10 16 0.00 0.00
7:55 pm 19:55 Sunny 72 22.1 41 5 33 33 WSW 5 7 30.03 1017 10 16 0.00 0.00
8:15 pm 20:15 Sunny 69 20.8 44 6.7 40 40 Calm 30.03 1017 10 16 0.00 0.00
8:35 pm 20:35 Clear 67 19.2 47 8.4 50 50 Calm 30.03 1017 10 16 0.00 0.00
8:55 pm 20:55 Clear 60 15.3 47 8.6 65 65 Calm 30.06 1018 10 16 0.00 0.00
9:15 pm 21:15 Clear 61 16 48 9.1 64 64 Calm 30.03 1017 10 16 0.00 0.00
9:35 pm 21:35 Clear 60 15.3 50 10.1 71 71 Calm 30.06 1018 10 16 0.00 0.00
9:55 pm 21:55 Clear 60 15.3 49 9.2 67 67 Calm 30.09 1019 10 16 0.00 0.00
10:15 pm 22:15 Clear 57 13.8 47 8.4 70 70 Calm 30.09 1019 10 16 0.00 0.00
10:35 pm 22:35 Clear 57 13.8 48 9 73 73 Calm 30.09 1019 10 16 0.00 0.00
10:55 pm 22:55 Clear 55 12.8 46 7.9 72 72 Calm 30.09 1019 10 16 0.00 0.00
11:15 pm 23:15 Clear 55 12.5 47 8.5 77 77 Calm 30.09 1019 10 16 0.00 0.00
11:35 pm 23:35 Clear 55 12.5 46 8 74 74 Calm 30.09 1019 10 16 0.00 0.00
11:55 pm 23:55 Clear 55 12.5 47 8.4 76 76 Calm 30.09 1019 10 16 0.00 0.00

Powered by AerisWeather